Regional Weather Roundup
Issued by NWS

Home | Current Version | Previous Version | Text Only | Print | Product List | Glossary Off
Versions: 1 2 3 4 5 6 7 8 9 10 11 12 13 14 15 16 17 18 19 20 21 22 23 24 25 26 27 28 29 30 31 32 33 34 35 36 37 38 39 40 41 42 43 44 45 46 47 48 49 50

000
ASUS45 KTFX 291710
RWRMT
MONTANA REGIONAL WEATHER ROUNDUP
NATIONAL WEATHER SERVICE GREAT FALLS MT
1100 AM MDT WED JUL 29 2015

NOTE: "FAIR" INDICATES FEW OR NO CLOUDS BELOW 12000 FEET WITH NO
SIGNIFICANT WEATHER AND/OR OBSTRUCTIONS TO VISIBILITY.

MTZ001>007-043-291800-
WEST OF THE DIVIDE

CITY           SKY/WX    TMP DP  RH WIND       PRES   REMARKS
KALISPELL      SUNNY     70  44  39 S8        30.23F
MISSOULA       SUNNY     61  42  49 S3        30.31F
BUTTE          SUNNY     60  32  34 CALM      30.38F
MULLAN PASS    SUNNY     59  37  44 VRB3      30.37S
DEER LODGE       N/A     64  41  42 CALM      30.38F
EUREKA           N/A     72  45  37 S3        30.21F
HAMILTON         N/A     66  41  39 NW1       30.31F
LIBBY            N/A     66  45  45 CALM      30.23F
RONAN            N/A     73  44  35 SE5       30.28F
$$

MTZ008-052>055-291800-
SOUTHWEST MONTANA

CITY           SKY/WX    TMP DP  RH WIND       PRES   REMARKS
BOZEMAN        SUNNY     64  39  39 S5        30.34F
DILLON         SUNNY     61  41  47 CALM      30.36F
W YELLOWSTONE  SUNNY     55  37  50 CALM      30.43F
TWIN BRIDGES     N/A     62  40  44 SE8       30.31S
$$

MTZ009-010-012-014-046-048-049-054-291800-
EAST SLOPES AND CENTRAL MONTANA

CITY           SKY/WX    TMP DP  RH WIND       PRES   REMARKS
CUT BANK       SUNNY     73  36  25 NW13G21   30.19F
GREAT FALLS    SUNNY     71  38  29 W8        30.22F
MALMSTROM AFB  SUNNY     71  39  31 W10G18    30.22F
HELENA         SUNNY     70  42  36 VRB5      30.28F
$$

MTZ011-013-016-021-045-047-050-051-291800-
NORTH CENTRAL MONTANA

CITY           SKY/WX    TMP DP  RH WIND       PRES   REMARKS
HAVRE          SUNNY     70  48  45 SW10      30.15F
LEWISTOWN      MOSUNNY   70  42  36 NW10      30.25F
CHINOOK          N/A     72  45  37 W12       30.15S
FORT BENTON      N/A     73  41  31 SW10G21   30.20S
$$

MTZ017>020-022>027-061-062-291800-
NORTHEAST MONTANA

CITY           SKY/WX    TMP DP  RH WIND       PRES   REMARKS
GLASGOW        SUNNY     75  48  38 W15G21    30.12F
JORDAN           N/A     75  44  33 W14G22    30.16F
SIDNEY         MOSUNNY  N/A N/A N/A W16G24    30.09S
WOLF POINT     SUNNY     76  50  40 W16       30.11F
MALTA            N/A     74  50  42 W8        30.10S
PLENTYWOOD       N/A     72  52  49 W20G26    30.05S
POPLAR           N/A     73  50  43 W15G21    30.10S
$$

MTZ028>42-056>058-291800-
SOUTHCENTRAL AND SOUTHEAST MONTANA

CITY           SKY/WX    TMP DP  RH WIND       PRES   REMARKS
BAKER          MOSUNNY   75  43  31 NW14G21   30.19S
BILLINGS       MOSUNNY   71  41  33 VRB5      30.27F
LIVINGSTON     SUNNY     70  37  29 SW14G21   30.31F
MILES CITY     SUNNY     76  43  30 W14G23    30.18F
FORSYTH          N/A     73  41  31 W12       30.20F
LAUREL           N/A     75  34  22 SW15      30.23F
ROUNDUP          N/A     73  37  26 SW6       30.13F
$$

REGIONAL REPORTS...DAKOTAS

CITY           SKY/WX    TMP DP  RH WIND       PRES   REMARKS
WILLISTON      MOSUNNY   76  51  41 W24G33    30.05S
MINOT          MOSUNNY   75  53  46 W22G30    29.95R
DICKINSON      PTSUNNY   72  46  39 W25G33    30.11R
BEACH          FAIR      73  45  35 NW20      30.16S
CROSBY         FAIR      73  54  49 W18G30    30.01R
BISMARCK       SUNNY     78  50  37 W18G31    30.03R
GRAND FORKS    MOSUNNY   77  54  44 NW26G41   29.76R
FARGO          SUNNY     78  56  46 W29G40    29.86R
BUFFALO SD       N/A     77  36  22 NW28G36   30.14S
RAPID CITY     SUNNY     77  41  27 NW10      30.25F
$$

REGIONAL REPORTS...WYOMING/IDAHO/WASHINGTON

CITY           SKY/WX    TMP DP  RH WIND       PRES   REMARKS
GILLETTE       SUNNY     71  33  24 SW9       30.31S
SHERIDAN       SUNNY     73  33  23 CALM      30.27F
BUFFALO WY     SUNNY     71  34  25 SE12      30.32F
CODY           SUNNY     70  32  24 S10G16    30.33F
YELLOWSTONE LA   N/A     54  36  50 E6        30.50F
IDAHO FALLS    SUNNY     68  35  29 NE5       30.36F
SALMON         SUNNY     61  43  51 CALM      30.34F
BOISE          SUNNY     75  34  22 S6        30.26S
SPOKANE        MOSUNNY   76  38  25 VRB7      30.23R
$$

REGIONAL REPORTS...ALBERTA

CITY           SKY/WX    TMP DP  RH WIND       PRES   REMARKS
EDMONTON       PTSUNNY   66  46  48 NW7       30.04S
CALGARY        PTSUNNY   72  41  33 W9G18     30.11F
LETHBRIDGE     MOSUNNY   72  37  28 W6        30.13F
MEDICINE HAT   MOSUNNY   73  50  43 SW10      30.10F
$$

REGIONAL REPORTS...SASKATCHEWAN

CITY           SKY/WX    TMP DP  RH WIND       PRES   REMARKS
SWIFT CURRENT  SUNNY     72  48  43 NW17      30.07S
REGINA         MOSUNNY   72  57  60 W22       29.96S
SASKATOON      MOSUNNY   72  55  56 W15       29.94S
$$


USA.gov is the U.S. government's official web portal to all federal, state and local government web resources and services.